Погода в Агишты

Россия / Чеченская Республика     43°01′12″N   45°53′36″E
темп.,
°C
ветер,
м/с
пор.,
м/с
влажн.,
%
обл.,
%
осадки,
мм/ч
давл.,
гПа
погр.,
м
16 апреля, пт
пт1600:00+8ю226382 0.0 101915
03:00+8ююв226650 0.0 101914
06:00+8ююв21675 0.0 102015
09:00+14ссв23485 0.0 1019990
12:00+17ссв434456 0.0 10181698
15:00+17св434630 0.1 10171537
18:00+13всв116447 0.1 101722
21:00+11ю22695 0.1 101822
17 апреля, сб
сб1700:00+10ю226614 0.0 101919
03:00+10ююв336214 0.0 101833
06:00+10ю226061 0.0 101732
09:00+16ссз3247100 0.0 1018661
12:00+16сз445386 0.0 10191378
15:00+14зсз3463100 0.0 10201230
18:00+11з2484100 0.1 1022452
21:00+10ссз1192100 0.4 1022218
18 апреля, вс
вс1800:00+9сз2296100 0.4 1022246
03:00+9ссв1195100 0.7 1021104
06:00+8св1297100 0.0 1021214
09:00+9с1194100 0.5 1020256
12:00+14с2272100 0.5 1016601
15:00+15с226983 0.6 1015869
18:00+12ссз2279100 0.2 1017148
21:00+11ююв338995 1.0 101794
19 апреля, пн
пн1900:00+11ююв2285100 0.2 101624
03:00+11ююв1182100 0.2 101615
06:00+11ююв1178100 0.0 101617
09:00+18ссв2257100 0.0 1016596
12:00+21ссв444380 0.0 10131358
15:00+21св444336 0.0 10121066
18:00+16с1163100 0.0 101412
21:00+13ююз226996 0.0 101316
20 апреля, вт
вт2000:00+14ююв336496 0.0 101141
03:00+14ю3460100 0.0 100950
06:00+15ю2359100 0.0 100852
09:00+23св1340100 0.0 1005425
12:00+25сз1436100 0.0 1003837
15:00+26з2536100 0.0 10011101
18:00+19ю3554100 0.1 1003121
21:00+11зсз5993100 0.4 1014937